Date String (YYYY-MM-DD hh:mm:ss) UTC,Instrument flags,absolute air pressure of the measurement (hPa),sample flow rate (lpm),inlet stack bypass flow (lpm),air temperature of the measurement (°C),ambient temperature measured by the external sensor (°C),aerosol sample conditioner tube jacket temperature (°C),OPC LED temperature (°C),internal box temperature (°C),relative humidity of the measurement (%),span deviation,mass concentration of particles derived from Lorenz-Mie calculation of OPC scattering (μg/m³),mass concentration of particles derived from Lorenz-Mie calculation of OPC scattering (μg/m³),mass concentration of particles derived from Lorenz-Mie calculation of OPC scattering (μg/m³)
DateTimeUTC,F1_M11,P_M11,Q1_M11,Q2_M11,T1_M11,T2_M11,T3_M11,T4_M11,T5_M11,U1_M11,ZSPAN_M11,X0_M11,X2_M11,X1_M11
2023-10-23 12:00:00,SystemResetWarning,0823.1,5.00,000.00,028.6,027.0,000.0,037.1,030.2,11.7,0000.0,0012.01,0004.61,0003.79
2023-10-23 12:01:00,SystemResetWarning,0823.1,5.01,000.00,028.6,027.0,000.0,037.1,030.2,11.9,0000.0,0012.22,0004.67,0003.81
2023-10-23 12:02:00,SystemResetWarning,0823.1,5.01,000.00,028.6,027.0,000.0,037.1,030.2,12.2,0000.0,0012.46,0004.70,0003.81
2023-10-23 12:03:00,SystemResetWarning,0823.1,5.00,000.00,028.6,026.9,000.0,037.1,030.1,12.1,0000.0,0013.09,0004.70,0003.81
2023-10-23 12:04:00,SystemResetWarning,0823.0,5.00,000.00,028.6,026.9,000.0,037.1,030.2,12.0,0000.0,0012.99,0004.72,0003.82
2023-10-23 12:05:00,SystemResetWarning,0823.0,4.99,000.00,028.6,026.9,000.0,037.1,030.1,12.2,0000.0,0011.60,0004.78,0003.84
2023-10-23 12:06:00,SystemResetWarning,0823.0,5.00,000.00,028.6,026.9,000.0,037.1,030.2,12.2,0000.0,0011.08,0004.76,0003.84
2023-10-23 12:07:00,SystemResetWarning,0823.0,4.99,000.00,028.6,026.9,000.0,037.1,030.2,12.2,0000.0,0011.38,0004.72,0003.83
2023-10-23 12:08:00,SystemResetWarning,0822.9,5.00,000.00,028.6,026.9,000.0,037.1,030.1,12.2,0000.0,0011.56,0004.70,0003.82
2023-10-23 12:09:00,SystemResetWarning,0823.0,5.01,000.00,028.6,026.9,000.0,037.0,030.2,12.3,0000.0,0011.12,0004.67,0003.83
2023-10-23 12:10:00,SystemResetWarning,0823.0,5.01,000.00,028.6,026.9,000.0,037.0,030.2,12.5,0000.0,0011.16,0004.69,0003.82
2023-10-23 12:11:00,SystemResetWarning,0823.1,4.99,000.00,028.6,026.9,000.0,037.0,030.1,12.5,0000.0,0010.83,0004.68,0003.81
2023-10-23 12:12:00,SystemResetWarning,0823.1,4.99,000.00,028.5,026.9,000.0,037.0,030.2,12.5,0000.0,0010.44,0004.61,0003.79
2023-10-23 12:13:00,SystemResetWarning,0823.1,5.00,000.00,028.5,026.9,000.0,037.0,030.1,12.5,0000.0,0010.19,0004.56,0003.77
2023-10-23 12:14:00,SystemResetWarning,0823.1,5.00,000.00,028.5,026.9,000.0,037.0,030.1,12.5,0000.0,0009.55,0004.54,0003.76
2023-10-23 12:15:00,SystemResetWarning,0823.1,5.00,000.00,028.5,026.9,000.0,037.0,030.2,12.4,0000.0,0009.46,0004.53,0003.76
2023-10-23 12:16:00,SystemResetWarning,0823.1,5.00,000.00,028.5,026.9,000.0,037.0,030.1,12.4,0000.0,0009.24,0004.46,0003.74
2023-10-23 12:17:00,SystemResetWarning,0823.0,5.00,000.00,028.5,026.9,000.0,037.0,030.1,12.2,0000.0,0009.03,0004.42,0003.73
2023-10-23 12:18:00,SystemResetWarning,0823.1,5.00,000.00,028.5,026.9,000.0,037.0,030.1,12.1,0000.0,0008.87,0004.45,0003.73
2023-10-23 12:19:00,SystemResetWarning,0823.2,5.00,000.00,028.5,027.0,000.0,037.0,030.1,12.1,0000.0,0008.96,0004.44,0003.74
2023-10-23 12:20:00,SystemResetWarning,0823.0,5.01,000.00,028.5,027.0,000.0,037.0,030.2,12.1,0000.0,0009.23,0004.47,0003.73
2023-10-23 12:21:00,SystemResetWarning,0823.1,5.00,000.00,028.5,027.0,000.0,037.0,030.2,12.2,0000.0,0009.70,0004.46,0003.73
2023-10-23 12:22:00,SystemResetWarning,0823.1,5.01,000.00,028.6,027.0,000.0,037.0,030.2,12.2,0000.0,0009.88,0004.47,0003.72
2023-10-23 12:23:00,SystemResetWarning,0823.0,5.00,000.00,028.6,027.0,000.0,037.0,030.2,12.2,0000.0,0010.08,0004.51,0003.72
2023-10-23 12:24:00,SystemResetWarning,0823.1,5.00,000.00,028.6,027.0,000.0,037.0,030.2,12.2,0000.0,0010.10,0004.53,0003.72
2023-10-23 12:25:00,SystemResetWarning,0823.1,5.00,000.00,028.6,027.0,000.0,037.0,030.2,12.1,0000.0,0010.76,0004.53,0003.72
2023-10-23 12:26:00,SystemResetWarning,0823.1,5.00,000.00,028.6,027.0,000.0,037.0,030.2,12.2,0000.0,0010.94,0004.55,0003.72
2023-10-23 12:27:00,SystemResetWarning,0823.2,4.99,000.00,028.6,027.0,000.0,037.0,030.2,12.1,0000.0,0010.96,0004.55,0003.71
2023-10-23 12:28:00,SystemResetWarning,0823.1,4.99,000.00,028.6,027.0,000.0,037.0,030.2,12.2,0000.0,0011.65,0004.59,0003.72
2023-10-23 12:29:00,SystemResetWarning,0823.2,5.00,000.00,028.6,027.0,000.0,037.0,030.2,12.2,0000.0,0012.00,0004.60,0003.74
2023-10-23 12:30:00,SystemResetWarning,0823.1,5.00,000.00,028.6,027.0,000.0,037.0,030.2,12.2,0000.0,0011.92,0004.60,0003.74
2023-10-23 12:31:00,SystemResetWarning,0823.1,5.01,000.00,028.6,027.0,000.0,037.0,030.2,12.2,0000.0,0012.11,0004.61,0003.75
2023-10-23 12:32:00,SystemResetWarning,0823.2,5.01,000.00,028.6,027.0,000.0,037.0,030.2,12.2,0000.0,0012.06,0004.61,0003.75
2023-10-23 12:33:00,SystemResetWarning,0823.2,5.00,000.00,028.6,027.0,000.0,037.0,030.2,12.2,0000.0,0011.65,0004.57,0003.75
2023-10-23 12:34:00,SystemResetWarning,0823.1,5.00,000.00,028.6,027.0,000.0,037.0,030.2,12.2,0000.0,0011.66,0004.53,0003.76
2023-10-23 12:35:00,SystemResetWarning,0823.2,5.00,000.00,028.6,027.0,000.0,037.0,030.2,12.2,0000.0,0011.71,0004.54,0003.77
2023-10-23 12:36:00,SystemResetWarning,0823.2,5.00,000.00,028.6,027.0,000.0,037.0,030.2,12.2,0000.0,0011.20,0004.52,0003.78
2023-10-23 12:37:00,SystemResetWarning,0823.1,5.00,000.00,028.6,027.0,000.0,037.0,030.2,12.2,0000.0,0010.87,0004.53,0003.79
2023-10-23 12:38:00,SystemResetWarning,0823.1,5.00,000.00,028.6,027.0,000.0,037.0,030.2,12.2,0000.6,0010.87,0004.54,0003.80
2023-10-23 12:39:00,SystemResetWarning,0823.1,5.00,000.00,028.6,027.0,000.0,037.0,030.2,12.2,0001.4,0010.60,0004.54,0003.80
2023-10-23 12:40:00,SystemResetWarning,0823.2,5.00,000.00,028.6,027.0,000.0,037.0,030.2,12.2,0003.6,0009.91,0004.55,0003.79
2023-10-23 12:41:00,SystemResetWarning,0823.2,5.00,000.00,028.5,027.0,000.0,037.0,030.2,12.2,0000.0,0009.99,0004.57,0003.77
2023-10-23 12:42:00,SystemResetWarning,0823.2,5.00,000.00,028.5,027.0,000.0,037.0,030.2,12.2,0000.0,0009.64,0004.54,0003.76
2023-10-23 12:43:00,SystemResetWarning,0823.2,4.99,000.00,028.5,027.0,000.0,037.0,030.2,12.2,0000.0,0009.46,0004.52,0003.75
2023-10-23 12:44:00,SystemResetWarning,0823.2,5.00,000.00,028.5,027.0,000.0,037.0,030.2,12.2,0000.0,0009.83,0004.60,0003.75
2023-10-23 12:45:00,SystemResetWarning,0823.2,5.00,000.00,028.5,027.0,000.0,037.0,030.2,12.2,0000.0,0009.80,0004.62,0003.75
2023-10-23 12:46:00,SystemResetWarning,0823.3,5.00,000.00,028.6,027.0,000.0,037.0,030.2,12.2,0000.0,0010.27,0004.63,0003.74
2023-10-23 12:47:00,SystemResetWarning,0823.3,5.00,000.00,028.6,027.0,000.0,037.0,030.2,12.2,0000.0,0010.64,0004.66,0003.74
2023-10-23 12:48:00,SystemResetWarning,0823.3,5.00,000.00,028.6,027.0,000.0,037.0,030.2,12.2,0000.0,0011.23,0004.68,0003.75
2023-10-23 12:49:00,SystemResetWarning,0823.3,5.00,000.00,028.6,027.0,000.0,037.0,030.2,12.2,0000.0,0011.41,0004.67,0003.75
2023-10-23 12:50:00,SystemResetWarning,0823.3,5.00,000.00,028.6,027.0,000.0,037.0,030.2,12.2,0000.0,0011.62,0004.67,0003.75
2023-10-23 12:51:00,SystemResetWarning,0823.3,5.00,000.00,028.6,027.0,000.0,037.0,030.2,12.2,0000.0,0011.64,0004.64,0003.75
2023-10-23 12:52:00,SystemResetWarning,0823.2,5.01,000.00,028.6,027.0,000.0,037.0,030.2,12.1,0000.0,0011.60,0004.64,0003.75
2023-10-23 12:53:00,SystemResetWarning,0823.3,5.00,000.00,028.6,027.0,000.0,037.0,030.2,12.1,0000.0,0011.58,0004.68,0003.75
2023-10-23 12:54:00,SystemResetWarning,0823.3,5.00,000.00,028.6,027.0,000.0,037.0,030.2,12.1,0000.0,0011.97,0004.72,0003.77
2023-10-23 12:55:00,SystemResetWarning,0823.3,5.00,000.00,028.6,027.0,000.0,037.0,030.2,12.2,0000.0,0012.31,0004.71,0003.80
2023-10-23 12:56:00,SystemResetWarning,0823.3,5.00,000.00,028.6,027.0,000.0,037.0,030.2,12.2,0000.0,0012.54,0004.74,0003.81
2023-10-23 12:57:00,SystemResetWarning,0823.3,5.01,000.00,028.6,027.0,000.0,037.0,030.2,12.2,0000.0,0012.12,0004.74,0003.83
2023-10-23 12:58:00,SystemResetWarning,0823.3,5.00,000.00,028.6,027.0,000.0,037.0,030.2,12.2,0000.0,0011.80,0004.74,0003.84
2023-10-23 12:59:00,SystemResetWarning,0823.3,4.99,000.00,028.6,027.0,000.0,037.0,030.2,12.2,0000.0,0011.20,0004.74,0003.85
